FW7632 Weather Reports


Display with metric or nautical units.
time (UTC)temp
F
wind
direction
speed
MPH
gust
MPH
rain 1hr
in
rain 24hr
in
rain mn
in
humidity
%
barometer
mb
20260510010020 55 196 2.0 8.0 0.00 0.37 0.37 1 1006.9
20260510004505 55 219 2.0 6.0 0.00 0.37 0.37 1 1006.9
20260510003002 55 223 1.0 8.0 0.00 0.37 0.37 1 1006.6
20260510001601 56 185 2.0 6.0 0.00 0.37 0.37 1 1006.6
20260510000052 57 205 1.0 4.0 0.00 0.37 0.37 1 1006.6
20260509234548 58 198 0.0 2.0 0.00 0.37 0.37 1 1006.4
20260509233044 58 204 0.0 7.0 0.00 0.37 0.37 1 1006.3
20260509231538 59 232 0.0 5.0 0.00 0.37 0.37 1 1005.9
20260509230039 58 241 3.0 11.0 0.00 0.37 0.37 1 1006.0
20260509224530 58 232 2.0 6.0 0.00 0.37 0.37 1 1006.3
20260509223026 58 235 3.0 9.0 0.00 0.37 0.37 1 1006.3
20260509221521 58 259 3.0 8.0 0.00 0.37 0.37 1 1006.1
20260509220019 58 213 2.0 8.0 0.00 0.37 0.37 1 1006.3
20260509214513 58 216 3.0 8.0 0.00 0.37 0.37 1 1006.4
20260509213010 58 232 5.0 10.0 0.00 0.37 0.37 1 1006.4
20260509211502 57 226 3.0 7.0 0.00 0.37 0.37 1 1006.5
20260509210104 57 221 3.0 9.0 0.00 0.37 0.37 1 1006.8
20260509204553 56 194 3.0 8.0 0.00 0.37 0.37 1 1006.9
20260509203049 56 215 3.0 10.0 0.01 0.37 0.37 1 1006.9
20260509201545 56 234 1.0 7.0 0.01 0.37 0.37 1 1007.0
20260509200047 55 238 3.0 8.0 0.02 0.37 0.37 1 1007.2
20260509194550 55 215 3.0 8.0 0.03 0.37 0.37 1 1007.4
20260509193034 55 221 1.0 9.0 0.04 0.36 0.36 1 1007.5
20260509191526 55 227 2.0 4.0 0.05 0.36 0.36 1 1007.6
20260509190025 54 211 2.0 5.0 0.05 0.35 0.35 1 1007.8
20260509184517 54 226 1.0 6.0 0.04 0.34 0.34 1 1007.8
20260509183016 54 261 1.0 6.0 0.02 0.32 0.32 1 1007.8
20260509181509 55 230 3.0 9.0 0.01 0.31 0.31 1 1007.7
20260509180005 55 226 3.0 7.0 0.00 0.30 0.30 1 1007.7
20260509174601 55 159 2.0 8.0 0.00 0.30 0.30 1 1007.6
20260509173106 54 216 4.0 8.0 0.00 0.30 0.30 1 1007.6
20260509171551 53 207 3.0 6.0 0.00 0.30 0.30 1 1007.6
20260509170047 53 219 2.0 9.0 0.00 0.30 0.30 1 1007.6
20260509164543 53 227 2.0 6.0 0.00 0.30 0.30 1 1007.7
20260509163038 53 199 1.0 7.0 0.00 0.30 0.30 1 1007.8
20260509161541 53 234 1.0 4.0 0.01 0.30 0.30 1 1008.0
20260509160034 53 236 0.0 4.0 0.01 0.30 0.30 1 1008.2
20260509154525 52 178 1.0 5.0 0.01 0.30 0.30 1 1008.2
20260509153033 52 178 2.0 7.0 0.02 0.30 0.30 1 1008.3
20260509151516 52 185 3.0 9.0 0.02 0.28 0.28 1 1008.4
20260509150017 52 227 3.0 6.0 0.02 0.28 0.28 1 1008.7
20260509144509 52 57 0.0 2.0 0.03 0.28 0.28 1 1008.9
20260509143003 52 57 0.0 2.0 0.03 0.28 0.28 1 1009.0
20260509141605 51 57 0.0 2.0 0.02 0.27 0.27 1 1009.0
20260509140106 51 57 0.0 4.0 0.03 0.27 0.27 1 1008.9
20260509134552 51 57 1.0 4.0 0.03 0.26 0.26 1 1008.9
20260509133046 50 57 0.0 3.0 0.04 0.25 0.25 1 1009.0
20260509131541 50 344 2.0 3.0 0.05 0.25 0.25 1 1009.2
20260509130037 50 344 2.0 3.0 0.07 0.24 0.24 1 1009.3
20260509124533 50 344 0.0 3.0 0.07 0.23 0.23 1 1009.4
20260509123028 50 344 0.0 3.0 0.07 0.21 0.21 1 1009.4
20260509121523 50 344 1.0 5.0 0.07 0.20 0.20 1 1009.4
20260509120018 49 70 1.0 3.0 0.05 0.17 0.17 1 1009.6
20260509114516 49 70 0.0 2.0 0.05 0.16 0.16 1 1009.6
20260509113011 49 70 1.0 4.0 0.05 0.14 0.14 1 1009.6
20260509111506 49 74 0.0 3.0 0.08 0.13 0.13 1 1009.6
20260509110002 49 74 1.0 4.0 0.07 0.12 0.12 1 1009.5
20260509104603 48 74 0.0 3.0 0.07 0.11 0.11 1 1009.4
20260509103104 48 74 1.0 4.0 0.05 0.09 0.09 1 1009.6
20260509101549 48 76 0.0 2.0 0.01 0.05 0.05 1 1009.5
20260509100044 48 78 2.0 4.0 0.01 0.05 0.05 1 1009.3
20260509094550 48 78 1.0 3.0 0.00 0.04 0.04 1 1009.4
20260509093038 48 78 0.0 2.0 0.00 0.04 0.04 1 1009.4
20260509091540 48 78 2.0 5.0 0.00 0.04 0.04 1 1009.3
20260509090036 47 88 2.0 4.0 0.00 0.04 0.04 1 1009.4
20260509084525 47 93 0.0 2.0 0.01 0.04 0.04 1 1009.4
20260509083017 47 93 0.0 2.0 0.01 0.04 0.04 1 1009.7
20260509081512 47 93 1.0 4.0 0.01 0.04 0.04 1 1009.8
20260509080008 46 94 0.0 2.0 0.01 0.04 0.04 1 1010.1
20260509074504 46 94 0.0 2.0 0.00 0.03 0.03 1 1010.2
20260509073109 46 94 0.0 1.0 0.01 0.03 0.03 1 1010.1
20260509071559 46 94 1.0 3.0 0.02 0.03 0.03 1 1009.9
20260509070056 45 94 0.0 1.0 0.03 0.03 0.03 1 1010.0
20260509064547 45 94 0.0 1.0 0.03 0.03 0.03 1 1010.0
20260509063055 45 94 0.0 2.0 0.02 0.02 0.02 1 1010.2
20260509061539 45 94 0.0 0.0 0.01 0.01 0.01 1 1010.5
20260509060039 46 94 0.0 1.0 0.00 0.00 0.00 1 1010.6
20260509054534 46 94 0.0 1.0 0.00 0.00 0.00 1 1010.7
20260509053037 46 94 0.0 1.0 0.00 0.00 0.00 1 1010.7
20260509051521 46 94 0.0 1.0 0.00 0.00 0.00 1 1010.7
20260509050016 46 94 0.0 2.0 0.00 0.00 0.00 1 1010.6
20260509044512 46 94 1.0 6.0 0.00 0.00 0.00 1 1010.7
20260509043012 46 94 2.0 8.0 0.00 0.00 0.00 1 1010.8
20260509041507 46 96 3.0 7.0 0.00 0.00 0.00 1 1010.9
20260509040109 45 126 1.0 2.0 0.00 0.00 0.00 1 1010.9
20260509034555 45 126 0.0 2.0 0.00 0.00 0.00 1 1011.0
20260509033110 44 126 0.0 2.0 0.00 0.00 0.00 1 1010.9
20260509031548 44 126 0.0 3.0 0.00 0.00 0.00 1 1010.8
20260509030042 45 126 1.0 2.0 0.00 0.00 0.00 1 1010.9
20260509024540 46 126 1.0 2.0 0.00 0.00 0.00 1 1011.0
20260509023033 47 126 1.0 2.0 0.00 0.00 0.00 1 1010.9
20260509021529 47 126 0.0 2.0 0.00 0.00 0.00 20 1010.8
20260509020024 48 126 0.0 1.0 0.00 0.00 0.00 29 1010.9
20260509014526 48 126 1.0 3.0 0.00 0.00 0.00 39 1010.8
20260509013015 49 126 0.0 3.0 0.00 0.00 0.00 46 1010.6
20260509011512 50 129 1.0 3.0 0.00 0.00 0.00 48 1010.5